Location: Newark
(29.9790°N, 31.1340°E)
Time: 06:43:55
(UTC+00:00)

Transit 2A Rocket - Pass Details

Date: 25 January 2020
Orbit: 591 x 912 km, 66.7° (Epoch: 27 February)

Event Time Altitude Azimuth Distance (km) Brightness Sun altitude
Rises 11:11:29 0° 357° (N) 3,066 7.7 38.6°
Reaches altitude 10° 11:14:45 10° 21° (NNE) 2,214 7.0 38.4°
Maximum altitude 11:17:39 15° 56° (NE) 1,941 6.9 38.2°
Drops below altitude 10° 11:20:40 10° 91° (E) 2,334 7.4 37.9°
Sets 11:24:15 0° 113° (ESE) 3,333 8.3 37.6°
